Year,Month,Day,Hour,Minute,Value (Times are PST for temperature in C)
2013,08,10,00,00,15.10
2013,08,10,00,01,15.10
2013,08,10,00,02,15.10
2013,08,10,00,03,15.30
2013,08,10,00,04,15.40
2013,08,10,00,05,15.50
2013,08,10,00,06,15.80
2013,08,10,00,07,16.10
2013,08,10,00,08,16.50
2013,08,10,00,09,16.90
2013,08,10,00,10,17.30
2013,08,10,00,11,17.60
2013,08,10,00,12,17.90
2013,08,10,00,13,18.20
2013,08,10,00,14,18.40
2013,08,10,00,15,18.50
2013,08,10,00,16,18.60
2013,08,10,00,17,18.70
2013,08,10,00,18,18.80
2013,08,10,00,19,18.80
2013,08,10,00,20,18.80
2013,08,10,00,21,18.90
2013,08,10,00,22,19.00
2013,08,10,00,23,19.00
2013,08,10,00,24,19.10
2013,08,10,00,25,19.10
2013,08,10,00,26,19.10
2013,08,10,00,27,19.20
2013,08,10,00,28,19.20
2013,08,10,00,29,19.20
2013,08,10,00,30,19.20
2013,08,10,00,31,19.20
2013,08,10,00,32,19.20
2013,08,10,00,33,19.20
2013,08,10,00,34,19.20
2013,08,10,00,35,19.20
2013,08,10,00,36,19.20
2013,08,10,00,37,19.20
2013,08,10,00,38,19.20
2013,08,10,00,39,19.20
2013,08,10,00,40,19.20
2013,08,10,00,41,19.20
2013,08,10,00,42,19.20
2013,08,10,00,43,19.20
2013,08,10,00,44,19.20
2013,08,10,00,45,19.20
2013,08,10,00,46,19.20
2013,08,10,00,47,19.20
2013,08,10,00,48,19.10
2013,08,10,00,49,19.10
2013,08,10,00,50,19.10
2013,08,10,00,51,19.10
2013,08,10,00,52,19.10
2013,08,10,00,53,19.20
2013,08,10,00,54,19.20
2013,08,10,00,55,19.20
2013,08,10,00,56,19.20
2013,08,10,00,57,19.20
2013,08,10,00,58,19.10
2013,08,10,00,59,19.10
2013,08,10,01,00,19.10
2013,08,10,01,01,19.10
2013,08,10,01,02,19.10
2013,08,10,01,03,19.10
2013,08,10,01,04,19.00
2013,08,10,01,05,19.00
2013,08,10,01,06,19.00
2013,08,10,01,07,19.00
2013,08,10,01,08,19.00
2013,08,10,01,09,19.00
2013,08,10,01,10,19.00
2013,08,10,01,11,18.90
2013,08,10,01,12,18.90
2013,08,10,01,13,18.90
2013,08,10,01,14,18.90
2013,08,10,01,15,18.90
2013,08,10,01,16,18.90
2013,08,10,01,17,18.90
2013,08,10,01,18,18.90
2013,08,10,01,19,18.90
2013,08,10,01,20,18.90
2013,08,10,01,21,18.90
2013,08,10,01,22,18.90
2013,08,10,01,23,18.90
2013,08,10,01,24,18.90
2013,08,10,01,25,18.90
2013,08,10,01,26,18.90
2013,08,10,01,27,18.90
2013,08,10,01,28,18.80
2013,08,10,01,29,18.80
2013,08,10,01,30,18.80
2013,08,10,01,31,18.80
2013,08,10,01,32,18.80
2013,08,10,01,33,18.80
2013,08,10,01,34,18.80
2013,08,10,01,35,18.80
2013,08,10,01,36,18.70
2013,08,10,01,37,18.70
2013,08,10,01,38,18.70
2013,08,10,01,39,18.70
2013,08,10,01,40,18.70
2013,08,10,01,41,18.70
2013,08,10,01,42,18.70
2013,08,10,01,43,18.70
2013,08,10,01,44,18.70
2013,08,10,01,45,18.70
2013,08,10,01,46,18.70
2013,08,10,01,47,18.60
2013,08,10,01,48,18.60
2013,08,10,01,49,18.60
2013,08,10,01,50,18.60
2013,08,10,01,51,18.70
2013,08,10,01,52,18.70
2013,08,10,01,53,18.70
2013,08,10,01,54,18.70
2013,08,10,01,55,18.70
2013,08,10,01,56,18.70
2013,08,10,01,57,18.70
2013,08,10,01,58,18.60
2013,08,10,01,59,18.60
2013,08,10,02,00,18.60
2013,08,10,02,01,18.60
2013,08,10,02,02,18.60
2013,08,10,02,03,18.60
2013,08,10,02,04,18.50
2013,08,10,02,05,18.50
2013,08,10,02,06,18.50
2013,08,10,02,07,18.50
2013,08,10,02,08,18.50
2013,08,10,02,09,18.40
2013,08,10,02,10,18.40
2013,08,10,02,11,18.40
2013,08,10,02,12,18.40
2013,08,10,02,13,18.40
2013,08,10,02,14,18.40
2013,08,10,02,15,18.40
2013,08,10,02,16,18.40
2013,08,10,02,17,18.50
2013,08,10,02,18,18.50
2013,08,10,02,19,18.50
2013,08,10,02,20,18.40
2013,08,10,02,21,18.40
2013,08,10,02,22,18.40
2013,08,10,02,23,18.40
2013,08,10,02,24,18.40
2013,08,10,02,25,18.40
2013,08,10,02,26,18.40
2013,08,10,02,27,18.40
2013,08,10,02,28,18.40
2013,08,10,02,29,18.40
2013,08,10,02,30,18.40
2013,08,10,02,31,18.40
2013,08,10,02,32,18.40
2013,08,10,02,33,18.40
2013,08,10,02,34,18.40
2013,08,10,02,35,18.40
2013,08,10,02,36,18.40
2013,08,10,02,37,18.40
2013,08,10,02,38,18.40
2013,08,10,02,39,18.40
2013,08,10,02,40,18.40
2013,08,10,02,41,18.30
2013,08,10,02,42,18.30
2013,08,10,02,43,18.30
2013,08,10,02,44,18.30
2013,08,10,02,45,18.30
2013,08,10,02,46,18.30
2013,08,10,02,47,18.30
2013,08,10,02,48,18.30
2013,08,10,02,49,18.30
2013,08,10,02,50,18.30
2013,08,10,02,51,18.30
2013,08,10,02,52,18.30
2013,08,10,02,53,18.30
2013,08,10,02,54,18.30
2013,08,10,02,55,18.30
2013,08,10,02,56,18.30
2013,08,10,02,57,18.30
2013,08,10,02,58,18.20
2013,08,10,02,59,18.20
2013,08,10,03,00,18.20
2013,08,10,03,01,18.20
2013,08,10,03,02,18.20
2013,08,10,03,03,18.20
2013,08,10,03,04,18.20
2013,08,10,03,05,18.20
2013,08,10,03,06,18.20
2013,08,10,03,07,18.20
2013,08,10,03,08,18.20
2013,08,10,03,09,18.20
2013,08,10,03,10,18.20
2013,08,10,03,11,18.20
2013,08,10,03,12,18.20
2013,08,10,03,13,18.20
2013,08,10,03,14,18.20
2013,08,10,03,15,18.20
2013,08,10,03,16,18.20
2013,08,10,03,17,18.20
2013,08,10,03,18,18.10
2013,08,10,03,19,18.10
2013,08,10,03,20,18.10
2013,08,10,03,21,18.10
2013,08,10,03,22,18.10
2013,08,10,03,23,18.10
2013,08,10,03,24,18.10
2013,08,10,03,25,18.10
2013,08,10,03,26,18.10
2013,08,10,03,27,18.10
2013,08,10,03,28,18.10
2013,08,10,03,29,18.10
2013,08,10,03,30,18.10
2013,08,10,03,31,18.00
2013,08,10,03,32,18.00
2013,08,10,03,33,18.00
2013,08,10,03,34,18.00
2013,08,10,03,35,18.00
2013,08,10,03,36,17.90
2013,08,10,03,37,17.90
2013,08,10,03,38,18.00
2013,08,10,03,39,18.00
2013,08,10,03,40,18.00
2013,08,10,03,41,18.00
2013,08,10,03,42,18.00
2013,08,10,03,43,17.90
2013,08,10,03,44,17.90
2013,08,10,03,45,17.90
2013,08,10,03,46,17.90
2013,08,10,03,47,17.90
2013,08,10,03,48,17.90
2013,08,10,03,49,17.90
2013,08,10,03,50,17.90
2013,08,10,03,51,17.90
2013,08,10,03,52,17.90
2013,08,10,03,53,17.90
2013,08,10,03,54,17.90
2013,08,10,03,55,17.90
2013,08,10,03,56,17.90
2013,08,10,03,57,17.90
2013,08,10,03,58,17.90
2013,08,10,03,59,17.90
2013,08,10,04,00,17.90
2013,08,10,04,01,17.90
2013,08,10,04,02,17.90
2013,08,10,04,03,17.90
2013,08,10,04,04,17.90
2013,08,10,04,05,17.90
2013,08,10,04,06,17.90
2013,08,10,04,07,17.90
2013,08,10,04,08,17.90
2013,08,10,04,09,17.90
2013,08,10,04,10,17.90
2013,08,10,04,11,17.90
2013,08,10,04,12,17.90
2013,08,10,04,13,18.00
2013,08,10,04,14,18.00
2013,08,10,04,15,18.00
2013,08,10,04,16,17.90
2013,08,10,04,17,17.90
2013,08,10,04,18,17.90
2013,08,10,04,19,17.90
2013,08,10,04,20,17.90
2013,08,10,04,21,17.80
2013,08,10,04,22,17.80
2013,08,10,04,23,17.80
2013,08,10,04,24,17.80
2013,08,10,04,25,17.80
2013,08,10,04,26,17.80
2013,08,10,04,27,17.80
2013,08,10,04,28,17.80
2013,08,10,04,29,17.90
2013,08,10,04,30,17.90
2013,08,10,04,31,17.90
2013,08,10,04,32,17.80
2013,08,10,04,33,17.80
2013,08,10,04,34,17.80
2013,08,10,04,35,17.80
2013,08,10,04,36,17.80
2013,08,10,04,37,17.80
2013,08,10,04,38,17.80
2013,08,10,04,39,17.80
2013,08,10,04,40,17.80
2013,08,10,04,41,17.80
2013,08,10,04,42,17.80
2013,08,10,04,43,17.80
2013,08,10,04,44,17.80
2013,08,10,04,45,17.80
2013,08,10,04,46,17.80
2013,08,10,04,47,17.80
2013,08,10,04,48,17.80
2013,08,10,04,49,17.80
2013,08,10,04,50,17.80
2013,08,10,04,51,17.80
2013,08,10,04,52,17.80
2013,08,10,04,53,17.80
2013,08,10,04,54,17.80
2013,08,10,04,55,17.80
2013,08,10,04,56,17.80
2013,08,10,04,57,17.80
2013,08,10,04,58,17.80
2013,08,10,04,59,17.80
2013,08,10,05,00,17.80
2013,08,10,05,01,17.80
2013,08,10,05,02,17.80
2013,08,10,05,03,17.80
2013,08,10,05,04,17.70
2013,08,10,05,05,17.70
2013,08,10,05,06,17.70
2013,08,10,05,07,17.70
2013,08,10,05,08,17.70
2013,08,10,05,09,17.70
2013,08,10,05,10,17.70
2013,08,10,05,11,17.60
2013,08,10,05,12,17.60
2013,08,10,05,13,17.60
2013,08,10,05,14,17.60
2013,08,10,05,15,17.60
2013,08,10,05,16,17.60
2013,08,10,05,17,17.60
2013,08,10,05,18,17.60
2013,08,10,05,19,17.60
2013,08,10,05,20,17.60
2013,08,10,05,21,17.60
2013,08,10,05,22,17.60
2013,08,10,05,23,17.60
2013,08,10,05,24,17.60
2013,08,10,05,25,17.50
2013,08,10,05,26,17.50
2013,08,10,05,27,17.40
2013,08,10,05,28,17.40
2013,08,10,05,29,17.40
2013,08,10,05,30,17.40
2013,08,10,05,31,17.40
2013,08,10,05,32,17.30
2013,08,10,05,33,17.30
2013,08,10,05,34,17.20
2013,08,10,05,35,17.20
2013,08,10,05,36,17.10
2013,08,10,05,37,17.10
2013,08,10,05,38,17.00
2013,08,10,05,39,17.00
2013,08,10,05,40,16.90
2013,08,10,05,41,16.90
2013,08,10,05,42,16.80
2013,08,10,05,43,16.70
2013,08,10,05,44,16.60
2013,08,10,05,45,16.50
2013,08,10,05,46,16.40
2013,08,10,05,47,16.40
2013,08,10,05,48,16.30
2013,08,10,05,49,16.30
2013,08,10,05,50,16.20
2013,08,10,05,51,16.20
2013,08,10,05,52,16.10
2013,08,10,05,53,16.10
2013,08,10,05,54,16.10
2013,08,10,05,55,16.00
2013,08,10,05,56,16.00
2013,08,10,05,57,15.90
2013,08,10,05,58,15.90
2013,08,10,05,59,15.90
2013,08,10,06,00,15.80
2013,08,10,06,01,15.80
2013,08,10,06,02,15.80
2013,08,10,06,03,15.70
2013,08,10,06,04,15.70
2013,08,10,06,05,15.70
2013,08,10,06,06,15.70
2013,08,10,06,07,15.60
2013,08,10,06,08,15.60
2013,08,10,06,09,15.60
2013,08,10,06,10,15.60
2013,08,10,06,11,15.60
2013,08,10,06,12,15.50
2013,08,10,06,13,15.50
2013,08,10,06,14,15.40
2013,08,10,06,15,15.40
2013,08,10,06,16,15.40
2013,08,10,06,17,15.30
2013,08,10,06,18,15.30
2013,08,10,06,19,15.30
2013,08,10,06,20,15.20
2013,08,10,06,21,15.20
2013,08,10,06,22,15.10
2013,08,10,06,23,15.10
2013,08,10,06,24,15.10
2013,08,10,06,25,15.10
2013,08,10,06,26,15.00
2013,08,10,06,27,15.00
2013,08,10,06,28,15.00
2013,08,10,06,29,14.90
2013,08,10,06,30,14.90
2013,08,10,06,31,14.90
2013,08,10,06,32,14.90
2013,08,10,06,33,14.80
2013,08,10,06,34,14.80
2013,08,10,06,35,14.80
2013,08,10,06,36,14.80
2013,08,10,06,37,14.80
2013,08,10,06,38,14.70
2013,08,10,06,39,14.70
2013,08,10,06,40,14.70
2013,08,10,06,41,14.70
2013,08,10,06,42,14.70
2013,08,10,06,43,14.60
2013,08,10,06,44,14.60
2013,08,10,06,45,14.60
2013,08,10,06,46,14.60
2013,08,10,06,47,14.60
2013,08,10,06,48,14.50
2013,08,10,06,49,14.50
2013,08,10,06,50,14.50
2013,08,10,06,51,14.50
2013,08,10,06,52,14.50
2013,08,10,06,53,14.50
2013,08,10,06,54,14.40
2013,08,10,06,55,14.40
2013,08,10,06,56,14.40
2013,08,10,06,57,14.40
2013,08,10,06,58,14.40
2013,08,10,06,59,14.40
2013,08,10,07,00,14.30
2013,08,10,07,01,14.30
2013,08,10,07,02,14.30
2013,08,10,07,03,14.30
2013,08,10,07,04,14.30
2013,08,10,07,05,14.30
2013,08,10,07,06,14.30
2013,08,10,07,07,14.30
2013,08,10,07,08,14.20
2013,08,10,07,09,14.20
2013,08,10,07,10,14.20
2013,08,10,07,11,14.20
2013,08,10,07,12,14.20
2013,08,10,07,13,14.20
2013,08,10,07,14,14.20
2013,08,10,07,15,14.20
2013,08,10,07,16,14.20
2013,08,10,07,17,14.20
2013,08,10,07,18,14.20
2013,08,10,07,19,14.20
2013,08,10,07,20,14.30
2013,08,10,07,21,14.30
2013,08,10,07,22,14.30
2013,08,10,07,23,14.30
2013,08,10,07,24,14.30
2013,08,10,07,25,14.40
2013,08,10,07,26,14.40
2013,08,10,07,27,14.40
2013,08,10,07,28,14.40
2013,08,10,07,29,14.50
2013,08,10,07,30,14.50
2013,08,10,07,31,14.50
2013,08,10,07,32,14.50
2013,08,10,07,33,14.60
2013,08,10,07,34,14.60
2013,08,10,07,35,14.50
2013,08,10,07,36,14.50
2013,08,10,07,37,14.50
2013,08,10,07,38,14.50
2013,08,10,07,39,14.50
2013,08,10,07,40,14.50
2013,08,10,07,41,14.50
2013,08,10,07,42,14.50
2013,08,10,07,43,14.50
2013,08,10,07,44,14.50
2013,08,10,07,45,14.50
2013,08,10,07,46,14.50
2013,08,10,07,47,14.50
2013,08,10,07,48,14.50
2013,08,10,07,49,14.50
2013,08,10,07,50,14.60
2013,08,10,07,51,14.60
2013,08,10,07,52,14.60
2013,08,10,07,53,14.60
2013,08,10,07,54,14.60
2013,08,10,07,55,14.60
2013,08,10,07,56,14.60
2013,08,10,07,57,14.60
2013,08,10,07,58,14.60
2013,08,10,07,59,14.60
2013,08,10,08,00,14.60
2013,08,10,08,01,14.70
2013,08,10,08,02,14.70
2013,08,10,08,03,14.70
2013,08,10,08,04,14.70
2013,08,10,08,05,14.70
2013,08,10,08,06,14.70
2013,08,10,08,07,14.70
2013,08,10,08,08,14.70
2013,08,10,08,09,14.80
2013,08,10,08,10,14.80
2013,08,10,08,11,14.80
2013,08,10,08,12,14.80
2013,08,10,08,13,14.90
2013,08,10,08,14,14.90
2013,08,10,08,15,14.90
2013,08,10,08,16,14.90
2013,08,10,08,17,14.90
2013,08,10,08,18,15.00
2013,08,10,08,19,15.00
2013,08,10,08,20,15.00
2013,08,10,08,21,15.00
2013,08,10,08,22,15.10
2013,08,10,08,23,15.10
2013,08,10,08,24,15.10
2013,08,10,08,25,15.10
2013,08,10,08,26,15.10
2013,08,10,08,27,15.10
2013,08,10,08,28,15.10
2013,08,10,08,29,15.10
2013,08,10,08,30,15.10
2013,08,10,08,31,15.10
2013,08,10,08,32,15.10
2013,08,10,08,33,15.10
2013,08,10,08,34,15.10
2013,08,10,08,35,15.10
2013,08,10,08,36,15.10
2013,08,10,08,37,15.10
2013,08,10,08,38,15.10
2013,08,10,08,39,15.10
2013,08,10,08,40,15.10
2013,08,10,08,41,15.10
2013,08,10,08,42,15.10
2013,08,10,08,43,15.10
2013,08,10,08,44,15.10
2013,08,10,08,45,15.10
2013,08,10,08,46,15.10
2013,08,10,08,47,15.10
2013,08,10,08,48,15.10
2013,08,10,08,49,15.10
2013,08,10,08,50,15.10
2013,08,10,08,51,15.10
2013,08,10,08,52,15.10
2013,08,10,08,53,15.10
2013,08,10,08,54,15.10
2013,08,10,08,55,15.10
2013,08,10,08,56,15.10
2013,08,10,08,57,15.10
2013,08,10,08,58,15.20
2013,08,10,08,59,15.20
2013,08,10,09,00,15.20
2013,08,10,09,01,15.20
2013,08,10,09,02,15.20
2013,08,10,09,03,15.20
2013,08,10,09,04,15.20
2013,08,10,09,05,15.20
2013,08,10,09,06,15.20
2013,08,10,09,07,15.30
2013,08,10,09,08,15.30
2013,08,10,09,09,15.30
2013,08,10,09,10,15.30
2013,08,10,09,11,15.30
2013,08,10,09,12,15.30
2013,08,10,09,13,15.30
2013,08,10,09,14,15.30
2013,08,10,09,15,15.30
2013,08,10,09,16,15.30
2013,08,10,09,17,15.30
2013,08,10,09,18,15.30
2013,08,10,09,19,15.30
2013,08,10,09,20,15.30
2013,08,10,09,21,15.30
2013,08,10,09,22,15.30
2013,08,10,09,23,15.30
2013,08,10,09,24,15.30
2013,08,10,09,25,15.30
2013,08,10,09,26,15.30
2013,08,10,09,27,15.30
2013,08,10,09,28,15.30
2013,08,10,09,29,15.30
2013,08,10,09,30,15.30
2013,08,10,09,31,15.30
2013,08,10,09,32,15.30
2013,08,10,09,33,15.30
2013,08,10,09,34,15.30
2013,08,10,09,35,15.30
2013,08,10,09,36,15.30
2013,08,10,09,37,15.30
2013,08,10,09,38,15.30
2013,08,10,09,39,15.30
2013,08,10,09,40,15.30
2013,08,10,09,41,15.30
2013,08,10,09,42,15.40
2013,08,10,09,43,15.40
2013,08,10,09,44,15.40
2013,08,10,09,45,15.40
2013,08,10,09,46,15.40
2013,08,10,09,47,15.40
2013,08,10,09,48,15.40
2013,08,10,09,49,15.40
2013,08,10,09,50,15.50
2013,08,10,09,51,15.50
2013,08,10,09,52,15.50
2013,08,10,09,53,15.60
2013,08,10,09,54,15.60
2013,08,10,09,55,15.70
2013,08,10,09,56,15.70
2013,08,10,09,57,15.80
2013,08,10,09,58,15.80
2013,08,10,09,59,15.90
2013,08,10,10,00,16.00
2013,08,10,10,01,16.00
2013,08,10,10,02,16.10
2013,08,10,10,03,16.20
2013,08,10,10,04,16.20
2013,08,10,10,05,16.30
2013,08,10,10,06,16.40
2013,08,10,10,07,16.40
2013,08,10,10,08,16.50
2013,08,10,10,09,16.50
2013,08,10,10,10,16.60
2013,08,10,10,11,16.70
2013,08,10,10,12,16.70
2013,08,10,10,13,16.80
2013,08,10,10,14,16.80
2013,08,10,10,15,16.90
2013,08,10,10,16,17.00
2013,08,10,10,17,17.00
2013,08,10,10,18,17.10
2013,08,10,10,19,17.30
2013,08,10,10,20,17.30
2013,08,10,10,21,17.40
2013,08,10,10,22,17.50
2013,08,10,10,23,17.60
2013,08,10,10,24,17.60
2013,08,10,10,25,17.70
2013,08,10,10,26,17.70
2013,08,10,10,27,17.70
2013,08,10,10,28,17.80
2013,08,10,10,29,17.80
2013,08,10,10,30,17.90
2013,08,10,10,31,17.90
2013,08,10,10,32,18.00
2013,08,10,10,33,18.10
2013,08,10,10,34,18.20
2013,08,10,10,35,18.30
2013,08,10,10,36,18.30
2013,08,10,10,37,18.40
2013,08,10,10,38,18.50
2013,08,10,10,39,18.60
2013,08,10,10,40,18.70
2013,08,10,10,41,18.70
2013,08,10,10,42,18.70
2013,08,10,10,43,18.70
2013,08,10,10,44,18.80
2013,08,10,10,45,18.80
2013,08,10,10,46,18.80
2013,08,10,10,47,18.90
2013,08,10,10,48,19.00
2013,08,10,10,49,19.00
2013,08,10,10,50,19.10
2013,08,10,10,51,19.20
2013,08,10,10,52,19.30
2013,08,10,10,53,19.40
2013,08,10,10,54,19.40
2013,08,10,10,55,19.50
2013,08,10,10,56,19.60
2013,08,10,10,57,19.60
2013,08,10,10,58,19.70
2013,08,10,10,59,19.70
2013,08,10,11,00,19.70
2013,08,10,11,01,19.70
2013,08,10,11,02,19.70
2013,08,10,11,03,19.80
2013,08,10,11,04,19.90
2013,08,10,11,05,19.90
2013,08,10,11,06,20.00
2013,08,10,11,07,20.10
2013,08,10,11,08,20.10
2013,08,10,11,09,20.20
2013,08,10,11,10,20.20
2013,08,10,11,11,20.30
2013,08,10,11,12,20.40
2013,08,10,11,13,20.50
2013,08,10,11,14,20.60
2013,08,10,11,15,20.60
2013,08,10,11,16,20.60
2013,08,10,11,17,20.70
2013,08,10,11,18,20.70
2013,08,10,11,19,20.80
2013,08,10,11,20,20.80
2013,08,10,11,21,20.90
2013,08,10,11,22,21.00
2013,08,10,11,23,21.00
2013,08,10,11,24,21.10
2013,08,10,11,25,21.30
2013,08,10,11,26,21.30
2013,08,10,11,27,21.40
2013,08,10,11,28,21.50
2013,08,10,11,29,21.60
2013,08,10,11,30,21.70
2013,08,10,11,31,21.70
2013,08,10,11,32,21.70
2013,08,10,11,33,21.70
2013,08,10,11,34,21.70
2013,08,10,11,35,21.70
2013,08,10,11,36,21.70
2013,08,10,11,37,21.80
2013,08,10,11,38,21.90
2013,08,10,11,39,22.10
2013,08,10,11,40,22.20
2013,08,10,11,41,22.40
2013,08,10,11,42,22.50
2013,08,10,11,43,22.60
2013,08,10,11,44,22.60
2013,08,10,11,45,22.60
2013,08,10,11,46,22.60
2013,08,10,11,47,22.60
2013,08,10,11,48,22.60
2013,08,10,11,49,22.60
2013,08,10,11,50,22.60
2013,08,10,11,51,22.60
2013,08,10,11,52,22.60
2013,08,10,11,53,22.60
2013,08,10,11,54,22.60
2013,08,10,11,55,22.60
2013,08,10,11,56,22.60
2013,08,10,11,57,22.60
2013,08,10,11,58,22.60
2013,08,10,11,59,22.60
2013,08,10,12,00,22.50
2013,08,10,12,01,22.40
2013,08,10,12,02,22.20
2013,08,10,12,03,22.00
2013,08,10,12,04,21.90
2013,08,10,12,05,21.70
2013,08,10,12,06,21.50
2013,08,10,12,07,21.30
2013,08,10,12,08,21.10
2013,08,10,12,09,20.90
2013,08,10,12,10,20.70
2013,08,10,12,11,20.60
2013,08,10,12,12,20.40
2013,08,10,12,13,20.40
2013,08,10,12,14,20.30
2013,08,10,12,15,20.30
2013,08,10,12,16,20.30
2013,08,10,12,17,20.30
2013,08,10,12,18,20.40
2013,08,10,12,19,20.40
2013,08,10,12,20,20.40
2013,08,10,12,21,20.40
2013,08,10,12,22,20.40
2013,08,10,12,23,20.40
2013,08,10,12,24,20.40
2013,08,10,12,25,20.30
2013,08,10,12,26,20.30
2013,08,10,12,27,20.30
2013,08,10,12,28,20.30
2013,08,10,12,29,20.30
2013,08,10,12,30,20.30
2013,08,10,12,31,20.30
2013,08,10,12,32,20.20
2013,08,10,12,33,20.20
2013,08,10,12,34,20.20
2013,08,10,12,35,20.10
2013,08,10,12,36,20.10
2013,08,10,12,37,20.10
2013,08,10,12,38,20.10
2013,08,10,12,39,20.20
2013,08,10,12,40,20.20
2013,08,10,12,41,20.20
2013,08,10,12,42,20.30
2013,08,10,12,43,20.40
2013,08,10,12,44,20.50
2013,08,10,12,45,20.60
2013,08,10,12,46,20.70
2013,08,10,12,47,20.70
2013,08,10,12,48,20.80
2013,08,10,12,49,20.80
2013,08,10,12,50,20.90
2013,08,10,12,51,20.90
2013,08,10,12,52,21.00
2013,08,10,12,53,21.00
2013,08,10,12,54,21.00
2013,08,10,12,55,21.00
2013,08,10,12,56,21.00
2013,08,10,12,57,21.00
2013,08,10,12,58,21.10
2013,08,10,12,59,21.20
2013,08,10,13,00,21.30
2013,08,10,13,01,21.40
2013,08,10,13,02,21.50
2013,08,10,13,03,21.60
2013,08,10,13,04,21.60
2013,08,10,13,05,21.60
2013,08,10,13,06,21.60
2013,08,10,13,07,21.60
2013,08,10,13,08,21.60
2013,08,10,13,09,21.60
2013,08,10,13,10,21.60
2013,08,10,13,11,21.60
2013,08,10,13,12,21.60
2013,08,10,13,13,21.60
2013,08,10,13,14,21.50
2013,08,10,13,15,21.50
2013,08,10,13,16,21.40
2013,08,10,13,17,21.40
2013,08,10,13,18,21.40
2013,08,10,13,19,21.40
2013,08,10,13,20,21.40
2013,08,10,13,21,21.30
2013,08,10,13,22,21.30
2013,08,10,13,23,21.30
2013,08,10,13,24,21.40
2013,08,10,13,25,21.40
2013,08,10,13,26,21.40
2013,08,10,13,27,21.50
2013,08,10,13,28,21.60
2013,08,10,13,29,21.50
2013,08,10,13,30,21.50
2013,08,10,13,31,21.50
2013,08,10,13,32,21.40
2013,08,10,13,33,21.40
2013,08,10,13,34,21.40
2013,08,10,13,35,21.40
2013,08,10,13,36,21.30
2013,08,10,13,37,21.40
2013,08,10,13,38,21.40
2013,08,10,13,39,21.40
2013,08,10,13,40,21.40
2013,08,10,13,41,21.40
2013,08,10,13,42,21.40
2013,08,10,13,43,21.50
2013,08,10,13,44,21.40
2013,08,10,13,45,21.40
2013,08,10,13,46,21.40
2013,08,10,13,47,21.40
2013,08,10,13,48,21.40
2013,08,10,13,49,21.40
2013,08,10,13,50,21.50
2013,08,10,13,51,21.50
2013,08,10,13,52,21.60
2013,08,10,13,53,21.60
2013,08,10,13,54,21.70
2013,08,10,13,55,21.70
2013,08,10,13,56,21.80
2013,08,10,13,57,21.80
2013,08,10,13,58,21.80
2013,08,10,13,59,21.80
2013,08,10,14,00,21.70
2013,08,10,14,01,21.70
2013,08,10,14,02,21.70
2013,08,10,14,03,21.70
2013,08,10,14,04,21.70
2013,08,10,14,05,21.70
2013,08,10,14,06,21.70
2013,08,10,14,07,21.70
2013,08,10,14,08,21.60
2013,08,10,14,09,21.60
2013,08,10,14,10,21.60
2013,08,10,14,11,21.70
2013,08,10,14,12,21.70
2013,08,10,14,13,21.60
2013,08,10,14,14,21.70
2013,08,10,14,15,21.70
2013,08,10,14,16,21.70
2013,08,10,14,17,21.70
2013,08,10,14,18,21.70
2013,08,10,14,19,21.70
2013,08,10,14,20,21.70
2013,08,10,14,21,21.70
2013,08,10,14,22,21.70
2013,08,10,14,23,21.70
2013,08,10,14,24,21.70
2013,08,10,14,25,21.70
2013,08,10,14,26,21.80
2013,08,10,14,27,21.80
2013,08,10,14,28,21.80
2013,08,10,14,29,21.80
2013,08,10,14,30,21.70
2013,08,10,14,31,21.70
2013,08,10,14,32,21.70
2013,08,10,14,33,21.80
2013,08,10,14,34,21.90
2013,08,10,14,35,21.90
2013,08,10,14,36,21.90
2013,08,10,14,37,21.90
2013,08,10,14,38,21.90
2013,08,10,14,39,21.90
2013,08,10,14,40,22.00
2013,08,10,14,41,22.10
2013,08,10,14,42,22.00
2013,08,10,14,43,22.00
2013,08,10,14,44,21.90
2013,08,10,14,45,21.90
2013,08,10,14,46,21.90
2013,08,10,14,47,21.90
2013,08,10,14,48,21.90
2013,08,10,14,49,21.80
2013,08,10,14,50,21.80
2013,08,10,14,51,21.80
2013,08,10,14,52,21.80
2013,08,10,14,53,21.80
2013,08,10,14,54,21.80
2013,08,10,14,55,21.80
2013,08,10,14,56,21.80
2013,08,10,14,57,21.80
2013,08,10,14,58,21.70
2013,08,10,14,59,21.80
2013,08,10,15,00,21.70
2013,08,10,15,01,21.70
2013,08,10,15,02,21.60
2013,08,10,15,03,21.60
2013,08,10,15,04,21.50
2013,08,10,15,05,21.40
2013,08,10,15,06,21.40
2013,08,10,15,07,21.30
2013,08,10,15,08,21.40
2013,08,10,15,09,21.30
2013,08,10,15,10,21.40
2013,08,10,15,11,21.40
2013,08,10,15,12,21.50
2013,08,10,15,13,21.60
2013,08,10,15,14,21.70
2013,08,10,15,15,21.70
2013,08,10,15,16,21.80
2013,08,10,15,17,21.80
2013,08,10,15,18,21.80
2013,08,10,15,19,21.80
2013,08,10,15,20,21.80
2013,08,10,15,21,21.80
2013,08,10,15,22,21.80
2013,08,10,15,23,21.80
2013,08,10,15,24,21.80
2013,08,10,15,25,21.80
2013,08,10,15,26,21.90
2013,08,10,15,27,22.00
2013,08,10,15,28,22.10
2013,08,10,15,29,22.10
2013,08,10,15,30,22.10
2013,08,10,15,31,22.00
2013,08,10,15,32,22.00
2013,08,10,15,33,21.80
2013,08,10,15,34,21.80
2013,08,10,15,35,21.80
2013,08,10,15,36,21.80
2013,08,10,15,37,21.80
2013,08,10,15,38,21.80
2013,08,10,15,39,21.80
2013,08,10,15,40,21.80
2013,08,10,15,41,21.80
2013,08,10,15,42,21.80
2013,08,10,15,43,21.80
2013,08,10,15,44,21.90
2013,08,10,15,45,22.00
2013,08,10,15,46,22.00
2013,08,10,15,47,21.90
2013,08,10,15,48,21.90
2013,08,10,15,49,21.90
2013,08,10,15,50,21.80
2013,08,10,15,51,21.80
2013,08,10,15,52,21.80
2013,08,10,15,53,21.70
2013,08,10,15,54,21.70
2013,08,10,15,55,21.70
2013,08,10,15,56,21.70
2013,08,10,15,57,21.60
2013,08,10,15,58,21.50
2013,08,10,15,59,21.40
2013,08,10,16,00,21.40
2013,08,10,16,01,21.40
2013,08,10,16,02,21.40
2013,08,10,16,03,21.50
2013,08,10,16,04,21.60
2013,08,10,16,05,21.60
2013,08,10,16,06,21.60
2013,08,10,16,07,21.60
2013,08,10,16,08,21.70
2013,08,10,16,09,21.70
2013,08,10,16,10,21.80
2013,08,10,16,11,21.80
2013,08,10,16,12,21.90
2013,08,10,16,13,22.00
2013,08,10,16,14,21.90
2013,08,10,16,15,21.90
2013,08,10,16,16,21.90
2013,08,10,16,17,21.90
2013,08,10,16,18,21.90
2013,08,10,16,19,21.90
2013,08,10,16,20,21.90
2013,08,10,16,21,21.90
2013,08,10,16,22,21.90
2013,08,10,16,23,21.90
2013,08,10,16,24,21.90
2013,08,10,16,25,21.90
2013,08,10,16,26,22.00
2013,08,10,16,27,22.00
2013,08,10,16,28,22.10
2013,08,10,16,29,22.20
2013,08,10,16,30,22.20
2013,08,10,16,31,22.30
2013,08,10,16,32,22.30
2013,08,10,16,33,22.30
2013,08,10,16,34,22.20
2013,08,10,16,35,22.20
2013,08,10,16,36,22.20
2013,08,10,16,37,22.30
2013,08,10,16,38,22.30
2013,08,10,16,39,22.30
2013,08,10,16,40,22.20
2013,08,10,16,41,22.10
2013,08,10,16,42,22.00
2013,08,10,16,43,22.00
2013,08,10,16,44,21.90
2013,08,10,16,45,21.90
2013,08,10,16,46,21.80
2013,08,10,16,47,21.80
2013,08,10,16,48,21.80
2013,08,10,16,49,21.80
2013,08,10,16,50,21.80
2013,08,10,16,51,21.80
2013,08,10,16,52,21.80
2013,08,10,16,53,21.70
2013,08,10,16,54,21.70
2013,08,10,16,55,21.70
2013,08,10,16,56,21.70
2013,08,10,16,57,21.70
2013,08,10,16,58,21.60
2013,08,10,16,59,21.50
2013,08,10,17,00,21.40
2013,08,10,17,01,21.40
2013,08,10,17,02,21.30
2013,08,10,17,03,21.30
2013,08,10,17,04,21.30
2013,08,10,17,05,21.30
2013,08,10,17,06,21.30
2013,08,10,17,07,21.30
2013,08,10,17,08,21.30
2013,08,10,17,09,21.30
2013,08,10,17,10,21.40
2013,08,10,17,11,21.40
2013,08,10,17,12,21.40
2013,08,10,17,13,21.40
2013,08,10,17,14,21.40
2013,08,10,17,15,21.40
2013,08,10,17,16,21.30
2013,08,10,17,17,21.30
2013,08,10,17,18,21.30
2013,08,10,17,19,21.30